Location: Cardiff
(53.7833°N, 113.6000°W)
Time: 05:57:12
(UTC+00:00)

SO-50 - Pass Details

Date: 11 December 2023
Orbit: 608 x 660 km, 64.6° (Epoch: 02 March)

Event Time Altitude Azimuth Distance (km) Brightness Sun altitude
Exits shadow 12:00:43 18° 27° (NNE) 1,569 ? -31.1°
Drops below altitude 10° 12:02:12 10° 39° (NE) 2,035 ? -30.9°
Sets 12:04:42 0° 50° (NE) 2,935 ? -30.5°
